Regional Weather Roundup
Issued by NWS Bismarck, ND

Home | Current Version | Previous Version | Text Only | Print | Product List | Glossary On
Versions: 1 2 3 4 5 6 7 8 9 10 11 12 13 14 15 16 17 18 19 20 21 22 23 24 25 26 27 28 29 30 31 32 33 34 35 36 37 38 39 40 41 42 43 44 45 46 47 48 49 50
000
ASUS43 KBIS 162302
RWRBIS

NWR BROADCAST TEXT
NATIONAL WEATHER SERVICE BISMARCK ND
500 PM CST MON JAN 16 2017

NOTE: "FAIR" INDICATES FEW OR NO CLOUDS BELOW 12,000 FEET WITH NO
SIGNIFICANT WEATHER AND/OR OBSTRUCTIONS TO VISIBILITY.


CITY           SKY/WX    TMP DP  RH WIND       PRES   REMARKS
WILLISTON      FAIR      19  13  77 SW3       30.10F
MINOT          FAIR      25  18  74 W10       30.05R WCI  15
MINOT AFB      NOT AVBL
BISMARCK       FAIR      25  16  68 W10       30.09R WCI  15
DICKINSON      FAIR      19  13  77 W10       30.06R WCI   7
GARRISON         N/A     18  13  80 NW3       30.06R
HETTINGER ARPT FAIR      19  13  77 NW10      30.08R WCI   7
JAMESTOWN      FAIR      15  10  80 W8        30.02S WCI   4
CARRINGTON     FAIR      18  14  86 NW10      30.06R WCI   6
HAZEN            N/A    N/A N/A N/A W6        30.10R
MANDAN         FAIR      18  14  86 NW7       30.08R WCI   8
STANLEY        FAIR      19  16  86 W14       30.07S WCI   6
$$

CITY           SKY/WX    TMP DP  RH WIND       PRES   REMARKS
GRAND FORKS    FAIR      17  10  74 W5        30.04S WCI  10
GRAND FORKS AF FAIR      17  10  72 NW5       30.04S WCI  10
DEVILS LAKE    FAIR      14  10  84 W9        30.04R WCI   2
FARGO          FAIR      18  10  71 SW3       30.05R
GRAFTON        FAIR      16  10  79 CALM      30.06F
GWINNER        FAIR      21  14  73 NW6       30.05R WCI  14
$$

CITY           SKY/WX    TMP DP  RH WIND       PRES   REMARKS
ABERDEEN       FAIR      19   7  59 NW3       30.06R
MOBRIDGE       FAIR      17   8  67 NW6       30.05R WCI   9
BUFFALO          N/A     24  14  65 NW14      30.02R WCI  12
RAPID CITY     FAIR      31  19  61 N15       30.06R
GLASGOW        FAIR      12   6  77 S9        30.06F WCI   0
SIDNEY         FAIR      16  11  80 SW10      30.11F WCI   4
WOLF POINT     FAIR      16   9  74 W6        30.12R WCI   7
GLENDIVE       FAIR      15   9  76 S6        30.11S WCI   6
MILES CITY     FAIR      15   4  61 S7        30.11S WCI   5
BAKER          FAIR      19  10  68 W7        30.10R WCI  10
$$

CITY           SKY/WX    TMP DP  RH WIND       PRES   REMARKS
BILLINGS       FAIR      26  11  52 SW18      30.07S WCI  13
GREAT FALLS    FAIR      34  19  54 SW21      29.99S
$$





USA.gov is the U.S. government's official web portal to all federal, state and local government web resources and services.